When you browse on this site, cookies collect data to enhance your experience and personalize the content and advertising you see.
Visit our Privacy Policy to learn more. By continuing to use the site, you agree to this use of cookies and data.
  • In United Kingdom
  • List of Countries
  • For 7 days
  • Water Temperature
  • Weather Map
  • Weather Widgets
  • user-avatar
    Login

    Hourly Weather Tuzla

    Today, 17 February, Monday

    Time Temperature Precipitation Wind Pressure Humidity
    00:00 +5°C° 0 mm 2 mps 728 mmHg 70%
    01:00 +4°C° 0 mm 2 mps 728 mmHg 69%
    02:00 +4°C° 0 mm 2 mps 728 mmHg 68%
    03:00 +4°C° 0 mm 2 mps 727 mmHg 66%
    04:00 +4°C° 0 mm 2 mps 727 mmHg 64%
    05:00 +4°C° 0 mm 2 mps 727 mmHg 63%
    06:00 +4°C° 0 mm 2 mps 727 mmHg 61%
    07:00 +4°C° 0 mm 2 mps 727 mmHg 60%
    08:00 +6°C° 0 mm 2 mps 727 mmHg 56%
    09:00 +9°C° 0 mm 1 mps 727 mmHg 53%
    10:00 +11°C° 0 mm 1 mps 727 mmHg 49%
    11:00 +12°C° 0 mm 1 mps 727 mmHg 46%
    12:00 +14°C° 0 mm 1 mps 727 mmHg 42%
    13:00 +16°C° 0 mm 1 mps 726 mmHg 39%
    14:00 +16°C° 0 mm 1 mps 726 mmHg 44%
    15:00 +15°C° 0 mm 1 mps 725 mmHg 48%
    16:00 +15°C° 0 mm 1 mps 725 mmHg 53%
    17:00 +13°C° 0 mm 1 mps 725 mmHg 56%
    18:00 +12°C° 0 mm 1 mps 725 mmHg 59%
    19:00 +10°C° 0 mm 1 mps 725 mmHg 61%
    20:00 +10°C° 0 mm 1 mps 725 mmHg 62%
    21:00 +9°C° 0 mm 1 mps 725 mmHg 62%
    22:00 +9°C° 0 mm 1 mps 725 mmHg 63%
    23:00 +8°C° 0 mm 1 mps 725 mmHg 63%

    Tomorrow, 18 February, Tuesday

    Time Temperature Precipitation Wind Pressure Humidity
    00:00 +8°C° 0 mm 1 mps 725 mmHg 64%
    01:00 +7°C° 0 mm 1 mps 725 mmHg 64%
    02:00 +7°C° 0 mm 1 mps 725 mmHg 65%
    03:00 +7°C° 0 mm 1 mps 725 mmHg 65%
    04:00 +6°C° 0 mm 1 mps 725 mmHg 66%
    05:00 +6°C° 0 mm 1 mps 725 mmHg 69%
    06:00 +6°C° 0 mm 1 mps 726 mmHg 71%
    07:00 +6°C° 0 mm 1 mps 726 mmHg 74%
    08:00 +7°C° 0 mm 1 mps 727 mmHg 76%
    09:00 +7°C° 0 mm 1 mps 727 mmHg 79%
    10:00 +8°C° 0 mm 1 mps 728 mmHg 81%
    11:00 +8°C° 0 mm 1 mps 728 mmHg 82%
    12:00 +8°C° 0 mm 1 mps 728 mmHg 83%
    13:00 +8°C° 0 mm 1 mps 727 mmHg 83%
    14:00 +8°C° 0 mm 1 mps 727 mmHg 80%
    15:00 +9°C° 0 mm 1 mps 727 mmHg 77%
    16:00 +8°C° 0 mm 0 mps 727 mmHg 75%
    17:00 +7°C° 0 mm 0 mps 727 mmHg 78%
    18:00 +6°C° 0 mm 0 mps 727 mmHg 82%
    19:00 +5°C° 0 mm 0 mps 727 mmHg 85%
    20:00 +5°C° 0 mm 0 mps 727 mmHg 86%
    21:00 +5°C° 0 mm 0 mps 727 mmHg 87%
    22:00 +4°C° 0 mm 0 mps 727 mmHg 88%
    23:00 +4°C° 0 mm 0 mps 727 mmHg 88%

    Day after tomorrow, 19 February, Wednesday

    Time Temperature Precipitation Wind Pressure Humidity
    00:00 +4°C° 0 mm 0 mps 727 mmHg 89%
    01:00 +3°C° 0 mm 0 mps 727 mmHg 90%
    02:00 +3°C° 0 mm 0 mps 726 mmHg 90%
    03:00 +3°C° 0 mm 0 mps 726 mmHg 91%
    04:00 +2°C° 0 mm 0 mps 725 mmHg 91%
    05:00 +2°C° 0 mm 0 mps 725 mmHg 92%
    06:00 +3°C° 0 mm 1 mps 725 mmHg 92%
    07:00 +3°C° 0 mm 1 mps 724 mmHg 92%
    08:00 +5°C° 0 mm 1 mps 724 mmHg 84%
    09:00 +6°C° 0 mm 1 mps 724 mmHg 75%
    10:00 +8°C° 0 mm 1 mps 724 mmHg 67%
    11:00 +9°C° 0 mm 1 mps 724 mmHg 63%
    12:00 +10°C° 0 mm 1 mps 723 mmHg 59%
    13:00 +11°C° 0 mm 1 mps 723 mmHg 55%
    14:00 +10°C° 0.1 mm 1 mps 722 mmHg 61%
    15:00 +9°C° 0.1 mm 1 mps 722 mmHg 68%
    16:00 +8°C° 0.1 mm 1 mps 721 mmHg 74%
    17:00 +8°C° 0.1 mm 1 mps 722 mmHg 77%
    18:00 +7°C° 0.1 mm 1 mps 722 mmHg 80%
    19:00 +7°C° 0.1 mm 1 mps 722 mmHg 84%
    20:00 +6°C° 0.9 mm 1 mps 722 mmHg 87%
    21:00 +5°C° 0.9 mm 1 mps 723 mmHg 91%
    22:00 +4°C° 0.9 mm 1 mps 723 mmHg 94%
    23:00 +4°C° 0.2 mm 1 mps 723 mmHg 95%

    20 February, Thursday

    Time Temperature Precipitation Wind Pressure Humidity
    00:00 +3°C° 0.2 mm 2 mps 724 mmHg 95%
    01:00 +3°C° 0.2 mm 2 mps 724 mmHg 96%
    02:00 +3°C° 1.5 mm 2 mps 724 mmHg 95%
    03:00 +2°C° 1.5 mm 2 mps 724 mmHg 95%
    04:00 +2°C° 1.5 mm 2 mps 725 mmHg 94%
    05:00 +1°C° 0.1 mm 2 mps 725 mmHg 94%
    06:00 +1°C° 0.1 mm 2 mps 725 mmHg 94%
    07:00 +1°C° 0.1 mm 1 mps 726 mmHg 94%
    08:00 +2°C° 0 mm 1 mps 726 mmHg 87%
    09:00 +2°C° 0 mm 2 mps 726 mmHg 80%
    10:00 +3°C° 0 mm 2 mps 727 mmHg 73%
    11:00 +4°C° 0 mm 2 mps 726 mmHg 70%
    12:00 +4°C° 0 mm 2 mps 726 mmHg 67%
    13:00 +5°C° 0 mm 2 mps 726 mmHg 64%
    14:00 +5°C° 0 mm 2 mps 726 mmHg 63%
    15:00 +5°C° 0 mm 2 mps 726 mmHg 63%
    16:00 +5°C° 0 mm 2 mps 726 mmHg 62%
    17:00 +4°C° 0 mm 1 mps 726 mmHg 67%
    18:00 +3°C° 0 mm 1 mps 726 mmHg 71%
    19:00 +1°C° 0 mm 0 mps 726 mmHg 76%
    20:00 +1°C° 0 mm 0 mps 726 mmHg 76%
    21:00 +2°C° 0 mm 1 mps 727 mmHg 77%
    22:00 +1°C° 0 mm 1 mps 727 mmHg 77%
    23:00 +1°C° 0 mm 1 mps 727 mmHg 77%

    21 February, Friday

    Time Temperature Precipitation Wind Pressure Humidity
    00:00 +1°C° 0 mm 1 mps 727 mmHg 78%
    01:00 +1°C° 0 mm 1 mps 727 mmHg 78%
    02:00 +1°C° 0 mm 1 mps 727 mmHg 77%
    03:00 +1°C° 0 mm 1 mps 727 mmHg 76%
    04:00 +1°C° 0 mm 1 mps 727 mmHg 76%
    05:00 +1°C° 0 mm 1 mps 726 mmHg 74%
    06:00 +1°C° 0 mm 1 mps 726 mmHg 73%
    07:00 +1°C° 0 mm 1 mps 726 mmHg 72%
    14:00 +11°C° 0 mm 1 mps 728 mmHg 53%
    15:00 +9°C° 0 mm 0 mps 728 mmHg 57%
    16:00 +9°C° 0 mm 0 mps 728 mmHg 60%
    17:00 +8°C° 0 mm 0 mps 729 mmHg 63%
    18:00 +7°C° 0 mm 1 mps 729 mmHg 66%
    19:00 +6°C° 0 mm 1 mps 730 mmHg 69%
    20:00 +5°C° 0 mm 1 mps 731 mmHg 72%
    21:00 +5°C° 0 mm 1 mps 731 mmHg 76%
    22:00 +4°C° 0 mm 1 mps 732 mmHg 79%
    23:00 +4°C° 0 mm 1 mps 732 mmHg 81%

    22 February, Saturday

    Time Temperature Precipitation Wind Pressure Humidity
    00:00 +4°C° 0 mm 1 mps 732 mmHg 82%
    01:00 +2°C° 0 mm 0 mps 732 mmHg 83%
    02:00 +2°C° 0 mm 0 mps 732 mmHg 83%
    03:00 +1°C° 0 mm 0 mps 732 mmHg 82%
    04:00 +1°C° 0 mm 0 mps 732 mmHg 82%
    05:00 +1°C° 0 mm 0 mps 732 mmHg 80%
    06:00 +2°C° 0 mm 1 mps 732 mmHg 79%
    07:00 +2°C° 0 mm 1 mps 732 mmHg 77%
    08:00 +4°C° 0 mm 1 mps 733 mmHg 69%
    09:00 +6°C° 0 mm 1 mps 733 mmHg 60%
    10:00 +8°C° 0 mm 1 mps 733 mmHg 52%
    11:00 +9°C° 0 mm 1 mps 733 mmHg 49%
    12:00 +9°C° 0 mm 0 mps 733 mmHg 46%
    13:00 +10°C° 0 mm 0 mps 732 mmHg 43%
    14:00 +10°C° 0 mm 0 mps 732 mmHg 46%
    15:00 +10°C° 0 mm 0 mps 732 mmHg 49%
    16:00 +9°C° 0 mm 0 mps 731 mmHg 52%
    17:00 +8°C° 0 mm 0 mps 731 mmHg 55%
    18:00 +7°C° 0 mm 1 mps 731 mmHg 59%
    19:00 +6°C° 0 mm 1 mps 731 mmHg 63%
    20:00 +6°C° 0 mm 1 mps 731 mmHg 64%
    21:00 +5°C° 0 mm 1 mps 731 mmHg 65%
    22:00 +5°C° 0 mm 1 mps 731 mmHg 66%
    23:00 +5°C° 0 mm 1 mps 731 mmHg 65%
    Show more